This is the latest recevied weather packets stored in our database for station/object K9APR. If no packets are shown the sender has not sent any weather packets the latest 10 day(s).
| Time | Temp. | Humidity | Pressure | Rain* | Wind** | Luminosity | Snow |
|---|---|---|---|---|---|---|---|
| 1778167943 | 11.11° C | 56% | 1016.6 hPa | 0 mm | - | - | - |
| 1778167403 | 11.11° C | 56% | 1016.5 hPa | 0 mm | - | - | - |
| 1778166863 | 10.56° C | 52% | 1016.6 hPa | 0 mm | - | - | - |
| 1778166324 | 10° C | 57% | 1016.4 hPa | 0 mm | - | - | - |
| 1778165785 | 10° C | 54% | 1016.5 hPa | 0 mm | - | - | - |
| 1778165243 | 10° C | 59% | 1016.7 hPa | 0 mm | - | - | - |
| 1778164705 | 10° C | 59% | 1016.7 hPa | 0 mm | - | - | - |
| 1778164162 | 9.44° C | 58% | 1016.7 hPa | 0 mm | - | - | - |
| 1778163624 | 9.44° C | 61% | 1016.9 hPa | 0 mm | - | - | - |
| 1778163086 | 8.89° C | 64% | 1016.9 hPa | 0 mm | - | - | - |
| 1778162544 | 8.33° C | 60% | 1016.8 hPa | 0 mm | - | - | - |
| 1778162007 | 8.33° C | 63% | 1016.7 hPa | 0 mm | - | - | - |
| 1778161463 | 7.78° C | 69% | 1016.7 hPa | 0 mm | - | - | - |
| 1778160923 | 7.78° C | 67% | 1016.7 hPa | 0 mm | - | - | - |
| 1778160383 | 7.22° C | 68% | 1016.7 hPa | 0 mm | - | - | - |
| 1778159844 | 6.67° C | 71% | 1016.8 hPa | 0 mm | - | - | - |
| 1778159336 | 6.67° C | 73% | 1016.7 hPa | 0 mm | - | - | - |
| 1778159303 | 6.67° C | 73% | 1016.7 hPa | 0 mm | - | - | - |
| 1778158763 | 6.11° C | 77% | 1016.8 hPa | 0 mm | - | - | - |
| 1778158226 | 5.56° C | 77% | 1016.5 hPa | 0 mm | - | - | - |
| 1778157687 | 5.56° C | 79% | 1016.6 hPa | 0 mm | - | - | - |
| 1778157143 | 5° C | 84% | 1016.6 hPa | 0 mm | - | - | - |
| 1778156607 | 4.44° C | 84% | 1016.6 hPa | 0 mm | - | - | - |
| 1778156066 | 3.89° C | 85% | 1016.6 hPa | 0 mm | - | - | - |
| 1778155561 | 3.89° C | 87% | 1016.5 hPa | 0 mm | - | - | - |
* Rain latest hour (hover to see other rain measurements)
** Current wind speed in m/s (hover to see current wind gust speed)